ASTRO E2 - Orbit

View from above orbital plane
View from above orbital plane
View from above satellite
View from above satellite

Ground track
Ground track

The orbit data is extracted from the following two-line orbital elements,

1 28773U 05025A   13138.16733220  .00004189  00000-0  27963-3 0   206
2 28773 031.3828 183.0223 0006458 236.4361 164.8774 15.05436552431574
Epoch (UTC): 18 May 2013 04:00:57
Eccentricity: 0.0006458
inclination: 31.3828°
perigee height: 545 km
apogee height: 554 km
right ascension of ascending node: 183.0223°
argument of perigee: 236.4361°
revolutions per day: 15.05436552
mean anomaly at epoch: 164.8774°
orbit number at epoch: 43157

The dashed part of the orbit path shows where the satellite is in the earth's shadow,  

Developed and maintained by Chris Peat, Heavens-Above GmbH. Please read the updated FAQ before sending e-mail. Imprint. DLR